Find Starlink 37097

NORAD ID: 68238 Int'l Des: 2026-054 Owner: SPXS Country: US Constellation: starlink operational
LEOCIRCULAR

リアルタイム位置

3D地球を読み込み中...

Starlink 37097について

説明を読み込み中...

次回通過

Passes for default location (London). Set your location on the main map for personalized predictions.

高度履歴

Loading altitude history...

軌道要素

1 68238U 26054G 26122.07000911 .00161574 00000-0 10371-2 0 9993
2 68238 53.1594 46.1292 0001151 97.4664 262.6487 15.75262247 7209
Epoch: May 2, 2026 • Age: 17 hours

現在のステータス

高度 352.7 km
速度 7.70 km/s
衛星直下点 -29.40°S, 116.84°W
打ち上げ日 Mar 17, 2026
運用期間 0.1 years
タイプ internet

技術仕様

分類 Payload
質量 575.00 kg
乾燥質量 530.00 kg
総質量 575.00 kg
長さ 0.30 m
直径 4.10 m
スパン 29.00 m
形状 Box + pan
製造者 SPXS
バスタイプ Starlink V2MO
フェーズステータス In Orbit
所有者/国 SPXS/US

Most Searched